Voltar ao catálogo

CZ-6A DEB

AtivoPO
NORAD 60709·DEBRIS·🇨🇳 China

Lançado Aug 6, 2024 de Taiyuan Satellite Launch Center

Loading…

Próximas Passagens (próximas 24 horas)

TLE

AtualizadoSource: Space-Track

Época: Sep 14, 2026, 07:03 UTC

1 60709U 24140DN  26257.29439865  .00000679  00000-0  27036-3 0  9994
2 60709  88.9951 263.6298 0014914 236.1710 123.8065 14.27478404108789

Acompanhe CZ-6A DEB em tempo real com AllMySat

Download on the App Store